PO-101 (43678 NORAD) Tracking and Keplerian Element Data

This shows tracking and keplerian element data for the satellite.

Feedback or suggestion? Click here.




ElementValue
Catalog43678
NamePO-101
Epoch Orbit2661
Epoch Day115.80306405
Epoch Year2019
RAAN230.3044
Inclination97.8431
Eccentricity0.0011273
Argument of Perigee117.5091
Mean Anonmoly242.7292
Mean Motion14.91540325
Decay Rate-1.1E-06
L11 43678U 18084H 19115.80306405 -.00000110 00000-0 -53013-5 0 9993
L22 43678 97.8431 230.3044 0011273 117.5091 242.7292 14.91540325 26613

Live tracking and technical data element details for PO-101 (NORAD 43678). PO-101 can be tracked NOW for your location showing map with azimuth and elevation plus other details from your city location.

Track the satellite on the map from your city or location and see movement details for azimuth, elevation, latitude, longitude, range, height, and movement on the map or in text.







IsCatalogInMostPopularTable: catalog: 43678, numindb: 89
Update: records affected: 1



GetName: 43678 PO-101

Hit Count: updated at: Fri, 26 Apr 2019 15:43:43 GMT